User: anonymous   Login
Location: La B�doule
(43.2468°N, 5.5934°E)
Time: 03:19:24
(UTC+00:00)
Language:

NOSS 3-1 (A) - Orbit

View from above orbital plane
View from above orbital plane
View from above satellite
View from above satellite

Ground track
Ground track

The orbit data is extracted from the following two-line orbital elements,

1 26905U 01040A   20168.87961534 0.00000000  00000-0  00000-0 0    00
2 26905  63.4069 113.2006 0469438   0.6925 359.3075 13.40782697    00
Epoch (UTC): 16 June 2020 21:06:38
Eccentricity: 0.0469438
inclination: 63.4069°
perigee height: 755 km
apogee height: 1458 km
right ascension of ascending node: 113.2006°
argument of perigee: 0.6925°
revolutions per day: 13.40782697
mean anomaly at epoch: 359.3075°
orbit number at epoch: 0

The dashed part of the orbit path shows where the satellite is in the earth's shadow,  

DLR